RYR84KM EGGW-LEMI

Flight info

Callsign RYR84KM
Flight time 2h 43m
Altitude 37000
Route RODNI N27 ICTAM Q63 CPT UN859 SOPIL DCT BALAN DCT LMG DCT PIMQO DCT AGN DCT ANETO N860 VLC L34 ALT
Aircraft B738/M-SDE3FGILRWY/SB1

Departure

Time 2026-05-07 08:35
Airport London Luton Airport (EGGW)

Arrival

Time 2026-05-07 11:18
Airport Region of Murcia International Airport (LEMI)
Time Latitude Longitude Altitude Speed Heading
2026-05-07 08:07 51.87685 -0.37119 520 ft 0 kts 344°
2026-05-07 08:28 51.87667 -0.37111 520 ft 4 kts 344°
2026-05-07 08:28 51.87642 -0.37100 521 ft 4 kts 344°
2026-05-07 08:28 51.87623 -0.37091 521 ft 4 kts 322°
2026-05-07 08:29 51.87614 -0.37062 521 ft 4 kts 257°
2026-05-07 08:29 51.87620 -0.37027 521 ft 2 kts 254°
2026-05-07 08:29 51.87620 -0.37025 521 ft 0 kts 254°
2026-05-07 08:31 51.87612 -0.37069 521 ft 9 kts 254°
2026-05-07 08:32 51.87594 -0.37173 521 ft 10 kts 254°
2026-05-07 08:32 51.87578 -0.37284 521 ft 10 kts 266°
2026-05-07 08:32 51.87582 -0.37399 521 ft 9 kts 264°
2026-05-07 08:32 51.87540 -0.37472 520 ft 9 kts 208°
2026-05-07 08:33 51.87503 -0.37549 521 ft 9 kts 252°
2026-05-07 08:33 51.87483 -0.37649 522 ft 10 kts 252°
2026-05-07 08:33 51.87466 -0.37760 522 ft 11 kts 257°
2026-05-07 08:33 51.87443 -0.37888 522 ft 9 kts 253°
2026-05-07 08:34 51.87425 -0.37985 523 ft 9 kts 251°
2026-05-07 08:34 51.87398 -0.38041 523 ft 3 kts 216°
2026-05-07 08:34 51.87352 -0.38081 522 ft 13 kts 207°
2026-05-07 08:34 51.87270 -0.38115 522 ft 11 kts 172°
2026-05-07 08:35 51.87265 -0.37985 523 ft 39 kts 74°
2026-05-07 08:35 51.87451 -0.36912 523 ft 155 kts 75°
2026-05-07 08:35 51.87816 -0.34997 1408 ft 195 kts 74°
2026-05-07 08:35 51.88270 -0.32724 2352 ft 222 kts 73°
2026-05-07 08:36 51.88772 -0.30293 3206 ft 232 kts 72°
2026-05-07 08:36 51.89305 -0.27803 3949 ft 242 kts 74°
2026-05-07 08:36 51.89623 -0.25113 4041 ft 247 kts 98°
2026-05-07 08:36 51.88919 -0.22746 4007 ft 233 kts 137°
2026-05-07 08:37 51.87469 -0.21743 4009 ft 233 kts 177°
2026-05-07 08:37 51.85935 -0.22590 4487 ft 241 kts 212°
2026-05-07 08:37 51.84704 -0.24405 5427 ft 244 kts 236°
2026-05-07 08:37 51.84141 -0.27003 6435 ft 247 kts 254°
2026-05-07 08:38 51.83720 -0.29715 7373 ft 252 kts 254°
2026-05-07 08:38 51.83281 -0.32484 8485 ft 255 kts 255°
2026-05-07 08:38 51.82831 -0.35232 9660 ft 259 kts 255°
2026-05-07 08:38 51.82352 -0.38067 10705 ft 264 kts 255°
2026-05-07 08:39 51.81860 -0.40940 11787 ft 266 kts 255°
2026-05-07 08:39 51.81359 -0.43846 12729 ft 272 kts 255°
2026-05-07 08:39 51.80895 -0.46780 13046 ft 270 kts 256°
2026-05-07 08:39 51.80428 -0.49887 13083 ft 294 kts 256°
2026-05-07 08:40 51.79940 -0.53131 13134 ft 299 kts 256°
2026-05-07 08:40 51.79442 -0.56428 13796 ft 307 kts 256°
2026-05-07 08:40 51.78908 -0.59932 14188 ft 332 kts 256°
2026-05-07 08:40 51.78251 -0.63557 14994 ft 341 kts 244°
2026-05-07 08:41 51.76789 -0.66456 16031 ft 342 kts 217°
2026-05-07 08:41 51.74650 -0.68157 16976 ft 348 kts 197°
2026-05-07 08:41 51.72239 -0.68759 17869 ft 355 kts 185°
2026-05-07 08:41 51.69754 -0.68991 18743 ft 360 kts 183°
2026-05-07 08:42 51.67239 -0.69154 19557 ft 364 kts 183°
2026-05-07 08:42 51.64698 -0.69309 20404 ft 367 kts 183°
2026-05-07 08:42 51.62128 -0.69476 21169 ft 373 kts 183°
2026-05-07 08:42 51.59519 -0.69662 21945 ft 378 kts 183°
2026-05-07 08:43 51.56881 -0.69861 22728 ft 382 kts 183°
2026-05-07 08:43 51.54250 -0.70069 23483 ft 386 kts 184°
2026-05-07 08:43 51.51549 -0.70289 24134 ft 390 kts 184°
2026-05-07 08:43 51.48826 -0.70513 24750 ft 394 kts 184°
2026-05-07 08:44 51.46070 -0.70741 25362 ft 398 kts 183°
2026-05-07 08:44 51.43288 -0.70972 25959 ft 402 kts 184°
2026-05-07 08:44 51.40484 -0.71204 26608 ft 404 kts 183°
2026-05-07 08:44 51.37680 -0.71436 27339 ft 404 kts 183°
2026-05-07 08:45 51.34909 -0.71665 28102 ft 403 kts 183°
2026-05-07 08:45 51.32120 -0.71894 28913 ft 401 kts 184°
2026-05-07 08:45 51.29347 -0.72122 29742 ft 398 kts 184°
2026-05-07 08:45 51.26580 -0.72348 30450 ft 397 kts 184°
2026-05-07 08:46 51.23821 -0.72570 31064 ft 397 kts 184°
2026-05-07 08:46 51.21072 -0.72791 31709 ft 395 kts 184°
2026-05-07 08:46 51.18334 -0.73013 32362 ft 393 kts 184°
2026-05-07 08:46 51.15605 -0.73236 32982 ft 392 kts 184°
2026-05-07 08:47 51.12881 -0.73459 33594 ft 391 kts 184°
2026-05-07 08:47 51.10207 -0.73679 34180 ft 390 kts 184°
2026-05-07 08:47 51.07500 -0.73902 34669 ft 390 kts 184°
2026-05-07 08:47 51.04787 -0.74125 35083 ft 391 kts 184°
2026-05-07 08:48 51.02072 -0.74347 35519 ft 391 kts 184°
2026-05-07 08:48 50.99354 -0.74570 35988 ft 391 kts 184°
2026-05-07 08:48 50.96642 -0.74792 36424 ft 391 kts 184°
2026-05-07 08:48 50.93921 -0.75014 36833 ft 392 kts 184°
2026-05-07 08:49 50.91190 -0.75237 37089 ft 397 kts 184°
2026-05-07 08:49 50.88397 -0.75400 37073 ft 407 kts 178°
2026-05-07 08:49 50.85603 -0.74766 37080 ft 416 kts 166°
2026-05-07 08:49 50.82883 -0.73148 37073 ft 421 kts 153°
2026-05-07 08:50 50.77939 -0.68209 37077 ft 421 kts 147°
2026-05-07 08:50 50.73060 -0.63115 37066 ft 419 kts 148°
2026-05-07 08:51 50.68194 -0.58111 37067 ft 416 kts 148°
2026-05-07 08:51 50.63384 -0.53228 37067 ft 413 kts 148°
2026-05-07 08:52 50.58565 -0.48365 37069 ft 410 kts 148°
2026-05-07 08:52 50.53760 -0.43529 37075 ft 410 kts 149°
2026-05-07 08:53 50.48954 -0.38703 37073 ft 410 kts 149°
2026-05-07 08:53 50.44168 -0.33907 37079 ft 412 kts 149°
2026-05-07 08:54 50.39331 -0.29073 37071 ft 413 kts 149°
2026-05-07 08:54 50.34429 -0.24187 37089 ft 426 kts 149°
2026-05-07 08:55 50.29346 -0.19132 37086 ft 438 kts 149°
2026-05-07 08:55 50.24229 -0.14054 37072 ft 439 kts 149°
2026-05-07 08:56 50.19069 -0.08945 37061 ft 439 kts 149°
2026-05-07 08:56 50.13924 -0.03865 37067 ft 437 kts 149°
2026-05-07 08:57 50.08618 0.00595 37063 ft 431 kts 162°
2026-05-07 08:57 50.02850 0.02956 37070 ft 427 kts 168°
2026-05-07 08:58 49.97120 0.05100 37074 ft 426 kts 168°
2026-05-07 08:58 49.91371 0.07312 37075 ft 426 kts 167°
2026-05-07 08:59 49.85623 0.09556 37078 ft 426 kts 167°
2026-05-07 08:59 49.79866 0.11804 37078 ft 427 kts 167°
2026-05-07 09:00 49.74135 0.14035 37072 ft 428 kts 167°
2026-05-07 09:00 49.68352 0.16279 37082 ft 429 kts 167°
2026-05-07 09:01 49.62563 0.18597 37075 ft 430 kts 167°
2026-05-07 09:01 49.56769 0.20961 37076 ft 431 kts 167°
2026-05-07 09:02 49.51001 0.23301 37069 ft 432 kts 167°
2026-05-07 09:02 49.45189 0.25644 37077 ft 432 kts 167°
2026-05-07 09:03 49.39376 0.27981 37075 ft 432 kts 167°
2026-05-07 09:03 49.33564 0.30313 37075 ft 431 kts 167°
2026-05-07 09:04 49.27766 0.32669 37073 ft 431 kts 166°
2026-05-07 09:04 49.22029 0.35093 37077 ft 430 kts 166°
2026-05-07 09:05 49.16258 0.37532 37080 ft 430 kts 166°
2026-05-07 09:05 49.10493 0.39952 37079 ft 429 kts 166°
2026-05-07 09:06 49.04733 0.42359 37072 ft 429 kts 166°
2026-05-07 09:06 48.99015 0.44742 37072 ft 429 kts 166°
2026-05-07 09:07 48.93260 0.47134 37076 ft 429 kts 166°
2026-05-07 09:07 48.87503 0.49523 37076 ft 429 kts 166°
2026-05-07 09:08 48.81742 0.51908 37075 ft 429 kts 166°
2026-05-07 09:08 48.75975 0.54255 37077 ft 429 kts 167°
2026-05-07 09:09 48.70226 0.56490 37077 ft 429 kts 167°
2026-05-07 09:09 48.64437 0.58736 37066 ft 430 kts 167°
2026-05-07 09:10 48.58646 0.60992 37073 ft 430 kts 167°
2026-05-07 09:10 48.52859 0.63243 37078 ft 429 kts 167°
2026-05-07 09:11 48.47117 0.65538 37078 ft 430 kts 167°
2026-05-07 09:11 48.41347 0.67900 37068 ft 430 kts 167°
2026-05-07 09:12 48.35577 0.70248 37075 ft 430 kts 167°
2026-05-07 09:12 48.29805 0.72582 37069 ft 429 kts 167°
2026-05-07 09:13 48.24032 0.74906 37073 ft 429 kts 167°
2026-05-07 09:13 48.18297 0.77170 37069 ft 429 kts 167°
2026-05-07 09:14 48.12527 0.79433 37067 ft 429 kts 167°
2026-05-07 09:14 48.06758 0.81695 37064 ft 429 kts 167°
2026-05-07 09:15 48.01028 0.83940 37069 ft 428 kts 167°
2026-05-07 09:15 47.95266 0.86193 37057 ft 428 kts 167°
2026-05-07 09:16 47.89507 0.88440 37064 ft 428 kts 167°
2026-05-07 09:16 47.83743 0.90682 37058 ft 428 kts 167°
2026-05-07 09:17 47.77981 0.92915 37041 ft 428 kts 168°
2026-05-07 09:17 47.72261 0.95124 37049 ft 428 kts 168°
2026-05-07 09:18 47.66502 0.97345 37050 ft 428 kts 168°
2026-05-07 09:18 47.60743 0.99562 37045 ft 428 kts 168°
2026-05-07 09:19 47.54983 1.01774 37045 ft 428 kts 168°
2026-05-07 09:19 47.49260 1.03968 37053 ft 428 kts 168°
2026-05-07 09:20 47.43489 1.06092 37046 ft 426 kts 173°
2026-05-07 09:20 47.37615 1.06435 37042 ft 422 kts 184°
2026-05-07 09:21 47.31738 1.06205 37050 ft 422 kts 184°
2026-05-07 09:21 47.29514 1.06128 37046 ft 423 kts 184°
2026-05-07 09:31 47.29105 1.06115 37045 ft 423 kts 184°
2026-05-07 09:31 47.23223 1.05956 37047 ft 423 kts 183°
2026-05-07 09:32 47.17333 1.05825 37031 ft 423 kts 183°
2026-05-07 09:32 47.11486 1.05697 37043 ft 423 kts 183°
2026-05-07 09:33 47.05598 1.05566 37043 ft 423 kts 183°
2026-05-07 09:33 46.99710 1.05407 37041 ft 423 kts 184°
2026-05-07 09:34 46.93831 1.05144 37038 ft 422 kts 184°
2026-05-07 09:34 46.87997 1.04873 37046 ft 422 kts 184°
2026-05-07 09:35 46.82132 1.04613 37045 ft 422 kts 184°
2026-05-07 09:35 46.76268 1.04359 37041 ft 421 kts 184°
2026-05-07 09:36 46.70403 1.04107 37036 ft 421 kts 184°
2026-05-07 09:36 46.64546 1.03855 37038 ft 421 kts 184°
2026-05-07 09:37 46.58725 1.03605 37038 ft 421 kts 184°
2026-05-07 09:37 46.52870 1.03355 37030 ft 421 kts 184°
2026-05-07 09:38 46.47013 1.03198 37033 ft 421 kts 183°
2026-05-07 09:38 46.41157 1.03165 37033 ft 421 kts 183°
2026-05-07 09:39 46.35339 1.03129 37024 ft 421 kts 183°
2026-05-07 09:39 46.29478 1.03078 37028 ft 421 kts 183°
2026-05-07 09:40 46.23623 1.03019 37029 ft 421 kts 183°
2026-05-07 09:40 46.17769 1.02960 37026 ft 421 kts 183°
2026-05-07 09:41 46.11952 1.02902 37027 ft 421 kts 183°
2026-05-07 09:41 46.06098 1.02843 37022 ft 421 kts 183°
2026-05-07 09:42 46.00240 1.02785 37019 ft 421 kts 183°
2026-05-07 09:42 45.94384 1.02727 37019 ft 421 kts 184°
2026-05-07 09:43 45.88525 1.02669 37014 ft 421 kts 184°
2026-05-07 09:43 45.82718 1.02616 37019 ft 420 kts 182°
2026-05-07 09:44 45.76900 1.03662 37017 ft 423 kts 173°
2026-05-07 09:44 45.71113 1.05225 37026 ft 423 kts 173°
2026-05-07 09:45 45.65334 1.06757 37020 ft 422 kts 173°
2026-05-07 09:45 45.59588 1.08239 37017 ft 422 kts 173°
2026-05-07 09:46 45.53807 1.09713 37017 ft 422 kts 173°
2026-05-07 09:46 45.48026 1.11182 37024 ft 422 kts 173°
2026-05-07 09:47 45.42245 1.12649 37025 ft 422 kts 173°
2026-05-07 09:47 45.36500 1.14104 37018 ft 422 kts 174°
2026-05-07 09:48 45.30717 1.15566 37027 ft 422 kts 174°
2026-05-07 09:48 45.24932 1.17027 37027 ft 422 kts 174°
2026-05-07 09:49 45.19145 1.18483 37022 ft 423 kts 174°
2026-05-07 09:49 45.13394 1.18770 37013 ft 413 kts 192°
2026-05-07 09:50 45.07760 1.17319 37024 ft 412 kts 194°
2026-05-07 09:50 45.02132 1.15807 37025 ft 412 kts 194°
2026-05-07 09:51 44.96492 1.14331 37024 ft 412 kts 194°
2026-05-07 09:51 44.90864 1.12886 37023 ft 411 kts 194°
2026-05-07 09:52 44.85284 1.11463 37024 ft 410 kts 194°
2026-05-07 09:52 44.79676 1.10038 37016 ft 409 kts 194°
2026-05-07 09:53 44.74077 1.08616 37018 ft 409 kts 194°
2026-05-07 09:53 44.68488 1.07200 37022 ft 408 kts 194°
2026-05-07 09:54 44.62893 1.05785 37014 ft 408 kts 194°
2026-05-07 09:54 44.57340 1.04383 37013 ft 408 kts 194°
2026-05-07 09:55 44.51753 1.02976 37019 ft 408 kts 194°
2026-05-07 09:55 44.46163 1.01570 37019 ft 408 kts 193°
2026-05-07 09:56 44.40611 1.00177 37004 ft 408 kts 193°
2026-05-07 09:56 44.35024 0.98777 37018 ft 408 kts 193°
2026-05-07 09:57 44.29436 0.97380 37021 ft 408 kts 193°
2026-05-07 09:57 44.23848 0.95986 37021 ft 408 kts 193°
2026-05-07 09:58 44.18263 0.94595 37020 ft 407 kts 193°
2026-05-07 09:58 44.12717 0.93217 37025 ft 408 kts 193°
2026-05-07 09:59 44.07132 0.91831 37020 ft 408 kts 193°
2026-05-07 09:59 44.01546 0.90448 37004 ft 408 kts 193°
2026-05-07 10:00 43.95961 0.89067 37021 ft 407 kts 193°
2026-05-07 10:00 43.90415 0.87699 37032 ft 407 kts 193°
2026-05-07 10:01 43.84838 0.86274 37024 ft 407 kts 194°
2026-05-07 10:01 43.79278 0.84770 37020 ft 407 kts 194°
2026-05-07 10:02 43.73716 0.83265 37028 ft 407 kts 194°
2026-05-07 10:02 43.68191 0.81781 37027 ft 407 kts 194°
2026-05-07 10:03 43.62625 0.80295 37020 ft 407 kts 194°
2026-05-07 10:03 43.57059 0.78813 37030 ft 407 kts 194°
2026-05-07 10:04 43.51496 0.77334 37031 ft 407 kts 194°
2026-05-07 10:04 43.45932 0.75858 37029 ft 407 kts 194°
2026-05-07 10:05 43.40406 0.74394 37017 ft 407 kts 193°
2026-05-07 10:05 43.34842 0.72924 37026 ft 407 kts 194°
2026-05-07 10:06 43.29282 0.71457 37024 ft 407 kts 193°
2026-05-07 10:06 43.23722 0.69993 37022 ft 407 kts 193°
2026-05-07 10:07 43.18198 0.68540 37012 ft 407 kts 193°
2026-05-07 10:07 43.12638 0.67082 37017 ft 407 kts 193°
2026-05-07 10:08 43.07078 0.65626 37010 ft 407 kts 193°
2026-05-07 10:08 43.01517 0.64172 36987 ft 407 kts 193°
2026-05-07 10:09 42.95998 0.62732 37001 ft 407 kts 193°
2026-05-07 10:09 42.90446 0.61286 37008 ft 406 kts 193°
2026-05-07 10:10 42.84907 0.59846 37003 ft 405 kts 193°
2026-05-07 10:10 42.79367 0.58408 36997 ft 406 kts 193°
2026-05-07 10:11 42.73825 0.56970 36992 ft 406 kts 193°
2026-05-07 10:11 42.68314 0.55547 36995 ft 406 kts 193°
2026-05-07 10:12 42.62753 0.54121 36999 ft 407 kts 193°
2026-05-07 10:12 42.57180 0.52696 36975 ft 407 kts 193°
2026-05-07 10:13 42.51613 0.51274 37002 ft 407 kts 193°
2026-05-07 10:13 42.46083 0.49863 36997 ft 406 kts 193°
2026-05-07 10:14 42.40534 0.48450 36977 ft 406 kts 193°
2026-05-07 10:14 42.34995 0.47041 36973 ft 404 kts 193°
2026-05-07 10:15 42.29474 0.45631 36993 ft 403 kts 193°
2026-05-07 10:15 42.23999 0.44232 36998 ft 403 kts 193°
2026-05-07 10:16 42.18480 0.42824 36984 ft 404 kts 193°
2026-05-07 10:16 42.12974 0.41424 36992 ft 402 kts 193°
2026-05-07 10:17 42.07479 0.40029 36990 ft 401 kts 193°
2026-05-07 10:17 42.02037 0.38648 37002 ft 401 kts 193°
2026-05-07 10:18 41.96560 0.37263 37010 ft 400 kts 193°
2026-05-07 10:18 41.91080 0.35884 37008 ft 401 kts 193°
2026-05-07 10:19 41.85601 0.34508 37015 ft 401 kts 193°
2026-05-07 10:19 41.80152 0.33141 37010 ft 401 kts 193°
2026-05-07 10:20 41.74665 0.31767 37006 ft 401 kts 193°
2026-05-07 10:20 41.69187 0.30407 37011 ft 400 kts 193°
2026-05-07 10:21 41.63723 0.29055 37011 ft 399 kts 193°
2026-05-07 10:21 41.58262 0.27704 37009 ft 399 kts 193°
2026-05-07 10:22 41.52847 0.26367 37005 ft 398 kts 193°
2026-05-07 10:22 41.47396 0.25023 36994 ft 398 kts 193°
2026-05-07 10:23 41.41955 0.23683 36994 ft 398 kts 193°
2026-05-07 10:23 41.36513 0.22346 36990 ft 397 kts 193°
2026-05-07 10:24 41.31124 0.21002 36984 ft 396 kts 194°
2026-05-07 10:24 41.25713 0.19629 36986 ft 395 kts 193°
2026-05-07 10:25 41.20310 0.18297 36992 ft 395 kts 193°
2026-05-07 10:25 41.14912 0.16971 36992 ft 394 kts 193°
2026-05-07 10:26 41.09635 0.15284 36987 ft 392 kts 199°
2026-05-07 10:26 41.04432 0.13130 36986 ft 392 kts 200°
2026-05-07 10:27 40.99216 0.10995 36989 ft 393 kts 199°
2026-05-07 10:27 40.93981 0.08899 36993 ft 393 kts 199°
2026-05-07 10:28 40.88747 0.06817 36974 ft 393 kts 199°
2026-05-07 10:28 40.83555 0.04741 36990 ft 392 kts 199°
2026-05-07 10:29 40.78339 0.02639 36979 ft 392 kts 199°
2026-05-07 10:29 40.73124 0.00540 36981 ft 391 kts 199°
2026-05-07 10:30 40.65340 -0.02583 36994 ft 392 kts 199°
2026-05-07 10:30 40.60118 -0.04673 36987 ft 393 kts 199°
2026-05-07 10:31 40.54882 -0.06764 36980 ft 393 kts 199°
2026-05-07 10:31 40.49636 -0.08839 36982 ft 394 kts 199°
2026-05-07 10:32 40.44420 -0.10895 36975 ft 393 kts 199°
2026-05-07 10:32 40.39185 -0.12958 36963 ft 393 kts 199°
2026-05-07 10:33 40.33954 -0.15017 36972 ft 392 kts 199°
2026-05-07 10:33 40.28732 -0.17070 36963 ft 392 kts 199°
2026-05-07 10:34 40.23551 -0.19105 36970 ft 391 kts 199°
2026-05-07 10:34 40.18359 -0.21159 36973 ft 389 kts 199°
2026-05-07 10:35 40.13173 -0.23209 36981 ft 389 kts 199°
2026-05-07 10:35 40.07995 -0.25252 36989 ft 389 kts 199°
2026-05-07 10:36 40.03686 -0.26949 36997 ft 389 kts 199°
2026-05-07 10:36 39.97666 -0.29305 36991 ft 388 kts 199°
2026-05-07 10:37 39.93363 -0.30960 36988 ft 387 kts 199°
2026-05-07 10:37 39.88207 -0.32943 37002 ft 387 kts 199°
2026-05-07 10:38 39.83032 -0.34956 36990 ft 388 kts 199°
2026-05-07 10:38 39.77034 -0.37292 36983 ft 386 kts 199°
2026-05-07 10:39 39.72729 -0.38964 36988 ft 384 kts 199°
2026-05-07 10:39 39.67658 -0.40932 36995 ft 382 kts 199°
2026-05-07 10:40 39.62568 -0.42903 36991 ft 382 kts 199°
2026-05-07 10:40 39.57481 -0.44872 36979 ft 382 kts 199°
2026-05-07 10:41 39.52394 -0.46836 36993 ft 381 kts 199°
2026-05-07 10:41 39.47260 -0.48452 36989 ft 386 kts 189°
2026-05-07 10:42 39.41885 -0.48845 36989 ft 387 kts 187°
2026-05-07 10:42 39.36501 -0.49199 36992 ft 388 kts 187°
2026-05-07 10:43 39.31110 -0.49571 36983 ft 387 kts 187°
2026-05-07 10:43 39.25767 -0.49953 36998 ft 387 kts 187°
2026-05-07 10:44 39.20381 -0.50341 36992 ft 387 kts 187°
2026-05-07 10:44 39.14999 -0.50729 36993 ft 387 kts 187°
2026-05-07 10:45 39.09621 -0.51115 36969 ft 387 kts 187°
2026-05-07 10:45 39.04257 -0.51500 36968 ft 386 kts 187°
2026-05-07 10:46 38.98939 -0.51882 36960 ft 385 kts 187°
2026-05-07 10:46 38.93579 -0.52266 36555 ft 387 kts 187°
2026-05-07 10:47 38.90940 -0.52452 36588 ft 376 kts 187°
2026-05-07 10:47 38.88324 -0.52638 36545 ft 377 kts 188°
2026-05-07 10:47 38.83040 -0.53019 36559 ft 384 kts 187°
2026-05-07 10:48 38.77717 -0.53401 36556 ft 386 kts 187°
2026-05-07 10:48 38.75051 -0.53589 36283 ft 384 kts 187°
2026-05-07 10:48 38.72381 -0.53778 35712 ft 383 kts 187°
2026-05-07 10:49 38.69740 -0.53964 35172 ft 378 kts 187°
2026-05-07 10:49 38.67130 -0.54148 34672 ft 373 kts 187°
2026-05-07 10:49 38.64556 -0.54330 34139 ft 369 kts 187°
2026-05-07 10:49 38.62011 -0.54509 33563 ft 364 kts 187°
2026-05-07 10:50 38.59530 -0.54685 32964 ft 361 kts 187°
2026-05-07 10:50 38.57011 -0.54866 32403 ft 365 kts 187°
2026-05-07 10:50 38.54461 -0.55050 31837 ft 370 kts 187°
2026-05-07 10:50 38.51879 -0.55235 31289 ft 373 kts 187°
2026-05-07 10:51 38.49292 -0.55418 30743 ft 372 kts 187°
2026-05-07 10:51 38.46709 -0.55599 30205 ft 372 kts 187°
2026-05-07 10:51 38.44126 -0.55780 29611 ft 371 kts 187°
2026-05-07 10:51 38.41543 -0.55963 28997 ft 375 kts 187°
2026-05-07 10:52 38.38901 -0.56024 28398 ft 385 kts 182°
2026-05-07 10:52 38.36235 -0.55819 27830 ft 393 kts 180°
2026-05-07 10:52 38.33496 -0.55541 27248 ft 396 kts 179°
2026-05-07 10:52 38.30738 -0.55277 26681 ft 398 kts 181°
2026-05-07 10:53 38.27972 -0.55249 26130 ft 399 kts 184°
2026-05-07 10:53 38.25192 -0.55321 25586 ft 397 kts 185°
2026-05-07 10:53 38.22457 -0.55419 25091 ft 390 kts 185°
2026-05-07 10:53 38.19759 -0.55522 24619 ft 387 kts 185°
2026-05-07 10:54 38.17070 -0.55628 24139 ft 386 kts 185°
2026-05-07 10:54 38.14431 -0.55724 23683 ft 384 kts 185°
2026-05-07 10:54 38.11767 -0.55816 23163 ft 383 kts 185°
2026-05-07 10:54 38.09118 -0.55906 22619 ft 377 kts 185°
2026-05-07 10:55 38.06517 -0.55991 22071 ft 370 kts 185°
2026-05-07 10:55 38.03977 -0.56072 21546 ft 361 kts 185°
2026-05-07 10:55 38.01485 -0.56150 21045 ft 355 kts 185°
2026-05-07 10:55 37.99037 -0.56227 20530 ft 350 kts 185°
2026-05-07 10:56 37.96618 -0.56303 20026 ft 345 kts 185°
2026-05-07 10:56 37.94235 -0.56378 19534 ft 341 kts 185°
2026-05-07 10:56 37.91912 -0.56449 19059 ft 336 kts 185°
2026-05-07 10:56 37.89585 -0.56521 18591 ft 333 kts 185°
2026-05-07 10:57 37.87280 -0.56593 18101 ft 330 kts 185°
2026-05-07 10:57 37.84995 -0.56671 17565 ft 327 kts 185°
2026-05-07 10:57 37.82733 -0.56766 17034 ft 324 kts 185°
2026-05-07 10:57 37.80487 -0.56885 16525 ft 322 kts 185°
2026-05-07 10:58 37.78256 -0.57024 16066 ft 319 kts 185°
2026-05-07 10:58 37.76049 -0.57182 15614 ft 317 kts 185°
2026-05-07 10:58 37.73855 -0.57358 15169 ft 314 kts 185°
2026-05-07 10:58 37.71710 -0.57545 14736 ft 312 kts 185°
2026-05-07 10:59 37.69549 -0.57746 14297 ft 311 kts 187°
2026-05-07 10:59 37.67508 -0.58512 13845 ft 308 kts 213°
2026-05-07 10:59 37.66070 -0.60459 13388 ft 306 kts 243°
2026-05-07 10:59 37.65389 -0.62993 12958 ft 304 kts 250°
2026-05-07 11:00 37.64627 -0.65475 12483 ft 303 kts 246°
2026-05-07 11:00 37.63786 -0.67913 12018 ft 303 kts 245°
2026-05-07 11:00 37.62923 -0.70336 11567 ft 303 kts 245°
2026-05-07 11:00 37.62067 -0.72724 11124 ft 303 kts 245°
2026-05-07 11:01 37.61197 -0.75145 10681 ft 303 kts 244°
2026-05-07 11:01 37.60328 -0.77565 10239 ft 303 kts 244°
2026-05-07 11:01 37.59459 -0.79987 9810 ft 303 kts 244°
2026-05-07 11:01 37.58594 -0.82397 9327 ft 297 kts 244°
2026-05-07 11:02 37.57756 -0.84735 8844 ft 288 kts 243°
2026-05-07 11:02 37.56939 -0.87009 8384 ft 281 kts 244°
2026-05-07 11:02 37.56145 -0.89223 7948 ft 272 kts 243°
2026-05-07 11:02 37.55395 -0.91310 7521 ft 258 kts 244°
2026-05-07 11:03 37.54732 -0.93351 7096 ft 250 kts 250°
2026-05-07 11:03 37.54250 -0.95440 6685 ft 246 kts 253°
2026-05-07 11:03 37.53802 -0.97478 6477 ft 238 kts 253°
2026-05-07 11:03 37.53439 -0.99501 6326 ft 241 kts 264°
2026-05-07 11:04 37.53560 -1.01623 6197 ft 243 kts 277°
2026-05-07 11:04 37.53800 -1.03737 6045 ft 244 kts 277°
2026-05-07 11:04 37.54054 -1.05871 5890 ft 247 kts 278°
2026-05-07 11:04 37.54311 -1.08023 5741 ft 249 kts 278°
2026-05-07 11:05 37.54518 -1.10158 5581 ft 249 kts 275°
2026-05-07 11:05 37.54673 -1.12329 5425 ft 249 kts 274°
2026-05-07 11:05 37.54817 -1.14456 5283 ft 237 kts 274°
2026-05-07 11:05 37.54944 -1.16446 5085 ft 220 kts 274°
2026-05-07 11:06 37.55061 -1.18306 4930 ft 208 kts 274°
2026-05-07 11:06 37.55170 -1.20091 4800 ft 201 kts 274°
2026-05-07 11:06 37.55274 -1.21844 4655 ft 200 kts 274°
2026-05-07 11:06 37.55328 -1.23600 4551 ft 203 kts 267°
2026-05-07 11:07 37.55089 -1.25347 4498 ft 202 kts 258°
2026-05-07 11:07 37.54829 -1.27044 4483 ft 200 kts 258°
2026-05-07 11:07 37.54599 -1.28772 4486 ft 203 kts 261°
2026-05-07 11:07 37.54444 -1.30546 4486 ft 203 kts 264°
2026-05-07 11:08 37.54294 -1.32303 4491 ft 201 kts 263°
2026-05-07 11:08 37.54136 -1.34046 4479 ft 200 kts 263°
2026-05-07 11:08 37.54172 -1.35785 4480 ft 199 kts 285°
2026-05-07 11:08 37.54841 -1.37261 4501 ft 190 kts 317°
2026-05-07 11:09 37.55962 -1.38106 4483 ft 188 kts 346°
2026-05-07 11:09 37.57241 -1.38401 4492 ft 187 kts 353°
2026-05-07 11:09 37.58531 -1.38514 4485 ft 185 kts
2026-05-07 11:09 37.59803 -1.38494 4485 ft 184 kts
2026-05-07 11:10 37.61043 -1.38494 4468 ft 173 kts
2026-05-07 11:10 37.62171 -1.38192 4474 ft 164 kts 37°
2026-05-07 11:10 37.63023 -1.37244 4505 ft 165 kts 45°
2026-05-07 11:10 37.63829 -1.36211 4504 ft 165 kts 50°
2026-05-07 11:11 37.64589 -1.35130 4501 ft 164 kts 51°
2026-05-07 11:11 37.65323 -1.34065 4479 ft 154 kts 50°
2026-05-07 11:11 37.65977 -1.33117 4452 ft 138 kts 51°
2026-05-07 11:11 37.66601 -1.32210 4232 ft 134 kts 51°
2026-05-07 11:12 37.67204 -1.31335 3913 ft 130 kts 53°
2026-05-07 11:12 37.67783 -1.30495 3641 ft 125 kts 52°
2026-05-07 11:12 37.68358 -1.29660 3392 ft 126 kts 51°
2026-05-07 11:12 37.68937 -1.28819 3084 ft 126 kts 51°
2026-05-07 11:13 37.69506 -1.27995 2849 ft 123 kts 51°
2026-05-07 11:13 37.70065 -1.27185 2593 ft 121 kts 51°
2026-05-07 11:13 37.70637 -1.26353 2567 ft 134 kts 51°
2026-05-07 11:13 37.71235 -1.25489 2499 ft 127 kts 51°
2026-05-07 11:14 37.71805 -1.24661 2476 ft 124 kts 50°
2026-05-07 11:14 37.72362 -1.23853 2491 ft 123 kts 50°
2026-05-07 11:14 37.72928 -1.23034 2497 ft 123 kts 52°
2026-05-07 11:14 37.73491 -1.22217 2476 ft 124 kts 50°
2026-05-07 11:15 37.74076 -1.21369 2349 ft 132 kts 50°
2026-05-07 11:15 37.74673 -1.20505 2158 ft 128 kts 52°
2026-05-07 11:15 37.75252 -1.19665 2002 ft 126 kts 51°
2026-05-07 11:15 37.75829 -1.18831 1795 ft 122 kts 52°
2026-05-07 11:16 37.76368 -1.18048 1623 ft 123 kts 51°
2026-05-07 11:16 37.76929 -1.17235 1473 ft 123 kts 51°
2026-05-07 11:16 37.77509 -1.16397 1305 ft 127 kts 52°
2026-05-07 11:16 37.78069 -1.15585 1095 ft 120 kts 50°
2026-05-07 11:17 37.78594 -1.14744 888 ft 127 kts 52°
2026-05-07 11:17 37.79192 -1.13922 764 ft 128 kts 49°
2026-05-07 11:17 37.79799 -1.13139 649 ft 117 kts 46°
2026-05-07 11:17 37.80296 -1.12493 645 ft 90 kts 46°
2026-05-07 11:18 37.80664 -1.12009 642 ft 67 kts 45°
2026-05-07 11:18 37.80962 -1.11630 644 ft 53 kts 45°
2026-05-07 11:18 37.81152 -1.11392 648 ft 27 kts 45°
2026-05-07 11:18 37.81253 -1.11303 645 ft 17 kts 355°
2026-05-07 11:19 37.81341 -1.11411 648 ft 18 kts 283°
2026-05-07 11:19 37.81279 -1.11540 652 ft 18 kts 226°
2026-05-07 11:19 37.81193 -1.11653 634 ft 19 kts 225°
2026-05-07 11:19 37.81093 -1.11780 649 ft 22 kts 225°
2026-05-07 11:20 37.80972 -1.11935 645 ft 28 kts 225°
2026-05-07 11:20 37.80846 -1.12096 648 ft 25 kts 225°
2026-05-07 11:20 37.80725 -1.12250 648 ft 24 kts 225°
2026-05-07 11:20 37.80613 -1.12396 649 ft 22 kts 226°
2026-05-07 11:21 37.80509 -1.12531 648 ft 21 kts 226°
2026-05-07 11:21 37.80415 -1.12654 647 ft 14 kts 228°
2026-05-07 11:21 37.80429 -1.12759 646 ft 12 kts 316°
2026-05-07 11:21 37.80454 -1.12848 647 ft 12 kts 253°
2026-05-07 11:22 37.80420 -1.12903 646 ft 7 kts 242°
2026-05-07 11:22 37.80443 -1.12956 647 ft 8 kts 317°
2026-05-07 11:22 37.80459 -1.12975 646 ft 0 kts 315°